Location: Enborne
(51.3833°N, 1.3667°W)
Time: 15:20:03
(UTC+00:00)

NOSS 3-2 (A) - Pass Details

Date: 18 September 2020
Orbit: 795 x 1413 km, 63.4° (Epoch: 25 October)

Event Time Altitude Azimuth Distance (km) Brightness Sun altitude
Rises 19:58:18 0° 315° (NW) 3,907 8.0 -16.8°
Reaches altitude 10° 20:00:49 10° 313° (NW) 3,030 7.2 -17.2°
Maximum altitude 20:08:10 76° 230° (SW) 1,300 4.1 -18.2°
Enters shadow 20:13:58 22° 149° (SSE) 2,574 5.2 -19.0°
